Starlink 30604

operational
NORAD ID: 58075 Int'l Des: 2023-160 Owner: SPXS Country: US Constellation: starlink
LEOCIRCULAR

Über Starlink 30604

Beschreibung wird geladen...

Live-Position

3D-Globus wird geladen...

Nächste Überflüge

Höhenverlauf

Altitude vs Time

uPlot chart will show altitude changes over time

Zweizeiliger Elementsatz

1 58075U 23160A 25307.70934499 -.00000109 00000-0 70343-5 0 9992
2 58075 43.0035 45.1062 0001188 268.7060 91.3646 15.02533265113968
Epoch: 3. Nov. 2025 • Age: 10 hours

Aktueller Status

Höhe 559.9 km
Geschwindigkeit 7.59 km/s
Subsatellitenpunkt 27.68°N, 8.5°W
Startdatum 18. Okt. 2023
Alter 2 years
Typ internet

Technische Details

Klassifizierung Payload
Masse 730.00 kg
Trockenmasse 700.00 kg
Gesamtmasse 730.00 kg
Länge 0.30 m
Durchmesser 4.10 m
Spannweite 29.00 m
Form Box + pan
Hersteller SPXS
Bus-Typ Starlink V2M
Phasenstatus In Orbit
Besitzer/Staat SPXS/US

Große Konstellationen

Loading constellations...